When you browse on this site, cookies collect data to enhance your experience and personalize the content and advertising you see.
Visit our Privacy Policy to learn more. By continuing to use the site, you agree to this use of cookies and data.
  • în România
  • Lista ţărilor
  • Pe 7 zile
  • Temperatura apei
  • Hartă satelitară
  • Meteo pe hartă
  • Widget-uri
  • user-avatar
    Intrare

    Meteo pe oră la Azzate

    Astăzi, 25 Aprilie, Joi

    Timp Temperatura Precipitaţii Vânt Presiune Umiditate
    00:00 +13°C° 0.8 mm 0 m/s 738 mmHg 86%
    01:00 +13°C° 0 mm 0 m/s 738 mmHg 89%
    02:00 +12°C° 0.3 mm 0 m/s 738 mmHg 90%
    03:00 +12°C° 0.3 mm 0 m/s 738 mmHg 90%
    04:00 +11°C° 0.3 mm 0 m/s 738 mmHg 91%
    05:00 +12°C° 0 mm 0 m/s 739 mmHg 90%
    06:00 +12°C° 0 mm 0 m/s 739 mmHg 88%
    07:00 +13°C° 0 mm 0 m/s 739 mmHg 87%
    08:00 +14°C° 0.1 mm 0 m/s 739 mmHg 78%
    09:00 +16°C° 0.1 mm 1 m/s 739 mmHg 70%
    10:00 +19°C° 0.1 mm 1 m/s 739 mmHg 61%
    11:00 +19°C° 0.1 mm 1 m/s 739 mmHg 58%
    12:00 +20°C° 0.1 mm 1 m/s 738 mmHg 56%
    13:00 +19°C° 0.1 mm 2 m/s 738 mmHg 53%
    14:00 +19°C° 0.2 mm 1 m/s 738 mmHg 59%
    15:00 +19°C° 0.2 mm 1 m/s 738 mmHg 64%
    16:00 +16°C° 0.2 mm 0 m/s 738 mmHg 70%
    17:00 +18°C° 0.5 mm 1 m/s 737 mmHg 73%
    18:00 +16°C° 0.5 mm 1 m/s 737 mmHg 76%
    19:00 +16°C° 0.5 mm 1 m/s 737 mmHg 79%
    20:00 +16°C° 0.7 mm 1 m/s 737 mmHg 81%
    21:00 +15°C° 0.7 mm 2 m/s 737 mmHg 83%
    22:00 +15°C° 0.7 mm 2 m/s 737 mmHg 85%
    23:00 +15°C° 1.1 mm 2 m/s 737 mmHg 88%

    Mâine, 26 Aprilie, Vineri

    Timp Temperatura Precipitaţii Vânt Presiune Umiditate
    00:00 +15°C° 1.1 mm 2 m/s 737 mmHg 90%
    01:00 +14°C° 1.1 mm 3 m/s 736 mmHg 92%
    02:00 +13°C° 1.3 mm 3 m/s 736 mmHg 92%
    03:00 +13°C° 1.3 mm 3 m/s 736 mmHg 93%
    04:00 +13°C° 1.3 mm 3 m/s 736 mmHg 93%
    05:00 +13°C° 1.9 mm 4 m/s 735 mmHg 93%
    06:00 +13°C° 1.9 mm 4 m/s 735 mmHg 93%
    07:00 +13°C° 1.9 mm 5 m/s 735 mmHg 92%
    08:00 +13°C° 2 mm 4 m/s 736 mmHg 88%
    09:00 +13°C° 2 mm 4 m/s 736 mmHg 84%
    10:00 +14°C° 2 mm 3 m/s 737 mmHg 80%
    11:00 +16°C° 1.4 mm 3 m/s 737 mmHg 73%
    12:00 +17°C° 1.4 mm 2 m/s 737 mmHg 66%
    13:00 +18°C° 1.4 mm 2 m/s 737 mmHg 59%
    14:00 +17°C° 2.7 mm 3 m/s 737 mmHg 63%
    15:00 +14°C° 2.7 mm 3 m/s 737 mmHg 67%
    16:00 +13°C° 2.7 mm 4 m/s 737 mmHg 71%
    17:00 +12°C° 0.7 mm 4 m/s 737 mmHg 70%
    18:00 +12°C° 0.7 mm 4 m/s 738 mmHg 68%
    19:00 +11°C° 0.7 mm 3 m/s 738 mmHg 66%
    20:00 +11°C° 0 mm 3 m/s 739 mmHg 67%
    21:00 +10°C° 0 mm 3 m/s 739 mmHg 67%
    22:00 +10°C° 0 mm 3 m/s 740 mmHg 67%
    23:00 +9°C° 0 mm 3 m/s 740 mmHg 66%

    Poimâine, 27 Aprilie, Sâmbătă

    Timp Temperatura Precipitaţii Vânt Presiune Umiditate
    00:00 +9°C° 0 mm 3 m/s 740 mmHg 65%
    01:00 +8°C° 0 mm 3 m/s 740 mmHg 64%
    02:00 +8°C° 0 mm 3 m/s 740 mmHg 62%
    03:00 +8°C° 0 mm 3 m/s 740 mmHg 61%
    04:00 +7°C° 0 mm 3 m/s 741 mmHg 60%
    05:00 +8°C° 0 mm 3 m/s 741 mmHg 58%
    06:00 +8°C° 0 mm 2 m/s 741 mmHg 56%
    07:00 +9°C° 0 mm 2 m/s 741 mmHg 55%
    08:00 +13°C° 0 mm 2 m/s 741 mmHg 48%
    09:00 +15°C° 0 mm 1 m/s 741 mmHg 41%
    10:00 +19°C° 0 mm 1 m/s 741 mmHg 34%
    11:00 +20°C° 0 mm 1 m/s 740 mmHg 32%
    12:00 +21°C° 0 mm 1 m/s 740 mmHg 30%
    13:00 +22°C° 0 mm 1 m/s 740 mmHg 28%
    14:00 +21°C° 0 mm 2 m/s 739 mmHg 30%
    15:00 +21°C° 0 mm 2 m/s 739 mmHg 31%
    16:00 +21°C° 0 mm 2 m/s 738 mmHg 32%
    17:00 +19°C° 0 mm 2 m/s 738 mmHg 39%
    18:00 +18°C° 0 mm 2 m/s 738 mmHg 45%
    19:00 +18°C° 0 mm 1 m/s 738 mmHg 52%
    20:00 +16°C° 0.2 mm 1 m/s 738 mmHg 56%
    21:00 +14°C° 0.2 mm 1 m/s 739 mmHg 60%
    22:00 +13°C° 0.2 mm 1 m/s 739 mmHg 64%
    23:00 +13°C° 0 mm 1 m/s 739 mmHg 66%

    28 Aprilie, Duminică

    Timp Temperatura Precipitaţii Vânt Presiune Umiditate
    00:00 +12°C° 0 mm 1 m/s 739 mmHg 67%
    01:00 +10°C° 0 mm 2 m/s 739 mmHg 69%
    02:00 +10°C° 0 mm 2 m/s 739 mmHg 68%
    03:00 +9°C° 0 mm 2 m/s 739 mmHg 66%
    04:00 +9°C° 0 mm 3 m/s 739 mmHg 65%
    05:00 +9°C° 0 mm 3 m/s 739 mmHg 61%
    06:00 +9°C° 0 mm 3 m/s 739 mmHg 58%
    07:00 +9°C° 0 mm 3 m/s 739 mmHg 54%
    08:00 +11°C° 0 mm 3 m/s 739 mmHg 46%
    09:00 +13°C° 0 mm 3 m/s 739 mmHg 38%
    10:00 +16°C° 0 mm 3 m/s 739 mmHg 30%
    11:00 +17°C° 0 mm 3 m/s 739 mmHg 27%
    12:00 +18°C° 0 mm 3 m/s 738 mmHg 25%
    13:00 +19°C° 0 mm 3 m/s 738 mmHg 22%
    14:00 +19°C° 0 mm 4 m/s 738 mmHg 23%
    15:00 +18°C° 0 mm 4 m/s 738 mmHg 23%
    16:00 +17°C° 0 mm 5 m/s 738 mmHg 24%
    17:00 +17°C° 0 mm 4 m/s 738 mmHg 28%
    18:00 +14°C° 0 mm 4 m/s 738 mmHg 32%
    19:00 +13°C° 0 mm 3 m/s 738 mmHg 36%
    20:00 +12°C° 0 mm 3 m/s 739 mmHg 40%
    21:00 +11°C° 0 mm 3 m/s 739 mmHg 43%
    22:00 +10°C° 0 mm 3 m/s 740 mmHg 46%
    23:00 +9°C° 0 mm 2 m/s 740 mmHg 47%

    29 Aprilie, Luni

    Timp Temperatura Precipitaţii Vânt Presiune Umiditate
    00:00 +9°C° 0 mm 2 m/s 740 mmHg 48%
    01:00 +8°C° 0 mm 2 m/s 740 mmHg 49%
    02:00 +8°C° 0 mm 2 m/s 739 mmHg 49%
    03:00 +8°C° 0 mm 2 m/s 739 mmHg 50%
    04:00 +9°C° 0 mm 1 m/s 739 mmHg 50%
    05:00 +10°C° 0 mm 1 m/s 739 mmHg 50%
    06:00 +10°C° 0 mm 1 m/s 739 mmHg 50%
    07:00 +11°C° 0 mm 1 m/s 739 mmHg 50%
    08:00 +13°C° 0 mm 1 m/s 739 mmHg 45%
    09:00 +15°C° 0 mm 1 m/s 739 mmHg 40%
    10:00 +18°C° 0 mm 1 m/s 739 mmHg 34%
    11:00 +19°C° 0 mm 1 m/s 739 mmHg 33%
    12:00 +20°C° 0 mm 1 m/s 739 mmHg 32%
    13:00 +22°C° 0 mm 1 m/s 739 mmHg 30%
    14:00 +21°C° 0 mm 1 m/s 739 mmHg 31%
    15:00 +21°C° 0 mm 1 m/s 738 mmHg 32%
    16:00 +21°C° 0 mm 1 m/s 738 mmHg 33%
    17:00 +20°C° 0 mm 1 m/s 738 mmHg 39%
    18:00 +19°C° 0 mm 1 m/s 739 mmHg 45%
    19:00 +16°C° 0 mm 1 m/s 739 mmHg 50%
    20:00 +15°C° 0 mm 1 m/s 739 mmHg 53%
    21:00 +14°C° 0 mm 1 m/s 740 mmHg 57%
    22:00 +13°C° 0 mm 1 m/s 740 mmHg 60%
    23:00 +12°C° 0 mm 1 m/s 740 mmHg 60%

    30 Aprilie, Marţi

    Timp Temperatura Precipitaţii Vânt Presiune Umiditate
    00:00 +10°C° 0 mm 2 m/s 740 mmHg 60%
    01:00 +10°C° 0 mm 2 m/s 740 mmHg 60%
    02:00 +9°C° 0 mm 2 m/s 740 mmHg 60%
    03:00 +9°C° 0 mm 2 m/s 739 mmHg 59%
    04:00 +9°C° 0 mm 2 m/s 739 mmHg 59%
    05:00 +9°C° 0 mm 2 m/s 739 mmHg 57%
    06:00 +11°C° 0 mm 1 m/s 739 mmHg 55%
    07:00 +12°C° 0 mm 1 m/s 738 mmHg 54%
    08:00 +14°C° 0 mm 1 m/s 738 mmHg 48%
    09:00 +18°C° 0 mm 1 m/s 738 mmHg 42%
    10:00 +20°C° 0 mm 1 m/s 737 mmHg 36%
    11:00 +21°C° 0 mm 1 m/s 737 mmHg 35%
    12:00 +21°C° 0 mm 2 m/s 737 mmHg 33%
    13:00 +23°C° 0 mm 2 m/s 736 mmHg 31%
    14:00 +23°C° 0 mm 2 m/s 736 mmHg 31%
    15:00 +23°C° 0 mm 2 m/s 736 mmHg 32%
    16:00 +23°C° 0 mm 2 m/s 736 mmHg 32%
    17:00 +21°C° 0 mm 2 m/s 736 mmHg 39%
    18:00 +20°C° 0 mm 2 m/s 736 mmHg 45%
    19:00 +18°C° 0 mm 2 m/s 736 mmHg 52%
    20:00 +17°C° 0 mm 2 m/s 736 mmHg 55%
    21:00 +15°C° 0 mm 1 m/s 737 mmHg 59%
    22:00 +14°C° 0 mm 1 m/s 737 mmHg 62%
    23:00 +14°C° 0 mm 1 m/s 737 mmHg 63%
    Arată mai mult